Regional Weather Roundup
Issued by NWS

Home | Current Version | Previous Version | Text Only | Print | Product List | Glossary Off
Versions: 1 2 3 4 5 6 7 8 9 10 11 12 13 14 15 16 17 18 19 20 21 22 23 24 25 26 27 28 29 30 31 32 33 34 35 36 37 38 39 40 41 42 43 44 45 46 47 48 49 50

000
ASUS43 KLMK 311110
RWRKY
KENTUCKY REGIONAL WEATHER ROUNDUP
NATIONAL WEATHER SERVICE LOUISVILLE KY
600 AM EST SAT JAN 31 2015

NOTE "FAIR" INDICATES FEW OR NO CLOUDS BELOW 12,000 FEET
WITH NO SIGNIFICANT WEATHER AND/OR OBSTRUCTIONS TO VISIBILITY.

KYZ001>023-026-027-061>063-070>075-311200-
WESTERN AND SOUTH CENTRAL KENTUCKY

CITY           SKY/WX    TMP DP  RH WIND       PRES   REMARKS
PADUCAH        PTCLDY    25  22  88 CALM      30.37F
HENDERSON      MOCLDY    23  19  86 CALM      30.38F
OWENSBORO      MOCLDY    24  22  92 CALM      30.39S
HOPKINSVILLE   PTCLDY    25  21  83 E2        30.37F
BOWLING GREEN  PTCLDY    21  16  81 CALM      30.40R
GLASGOW        FAIR      20  19  96 CALM      30.38S
$$

KYZ024-025-028>034-038-045-046-053-311200-
NORTH CENTRAL KENTUCKY

CITY           SKY/WX    TMP DP  RH WIND       PRES   REMARKS
LOUISVILLE/SDF MOCLDY    23  16  74 SE5       30.38F WCI  17
LOUISVILLE/LOU CLEAR     22  15  75 CALM      30.38F
FORT KNOX      PTCLDY    20  15  83 E2        30.35F
$$

KYZ035>037-039>044-047>052-055>060-089>105-311200-
NORTHEAST KENTUCKY

CITY           SKY/WX    TMP DP  RH WIND       PRES   REMARKS
LEXINGTON      CLEAR     19  12  74 SE7       30.36F WCI  10
COVINGTON      CLEAR     19  12  74 S5        30.35F WCI  12
FRANKFORT      CLEAR     15  11  83 CALM      30.36F
$$

KYZ054-064>069-076>088-106>120-311200-
SOUTHEAST KENTUCKY

CITY           SKY/WX    TMP DP  RH WIND       PRES   REMARKS
JACKSON        CLEAR     20  12  71 CALM      30.34F
LONDON         CLEAR     19  13  77 CALM      30.36S
SOMERSET       CLEAR     19  18  93 CALM      30.39F
MIDDLESBORO    CLEAR     19  17  93 CALM      30.39R
MONTICELLO     SUNNY     16  13  88 CALM      30.40S
$$



USA.gov is the U.S. government's official web portal to all federal, state and local government web resources and services.